DELTA 1 DEB, 10645

Orbit data source: Space-Track

DELTA 1 DEB, 10645 is space debris in LEO originally from a launch on Thu, 29 Jul 1976 UTC launched from the Air Force Western Test Range (AFWTR). Debris objects in space refer to the collection of defunct objects orbiting the Earth. Examples of debris include non-operational satellites, rocket bodies, and fragments generated from explosions, collisions, or faulty payload assembly.

Loading next visibility...
Identifier
10645, 1976-077F
Orbit
LEO
Country
Flag of USUS
Related business
Manufacturer
Unknown
Mission
Spacecraft
Bus & Motor
Unknown
Mass
Unknown
Launch date (UTC)
1976-07-29 (49 years ago)
Launch vehicle
Unknown
Launch site
Air Force Western Test Range (AFWTR)
Object type
Payload
Rocket body
Debris
Shape & HBR
Unknown shape, 0.2 m
Radar Cross Section
Medium (>0.1 m² and <1 m²)

Expand to show TLE details & history
Last TLE update: 22 hours ago

TLE from 22 hours ago
0 DELTA 1 DEB
1 10645U 76077F   25288.68383421 -.00000010  00000-0  38231-3 0  9995
2 10645 102.4122 196.3788 0224347 268.1806 118.5328 11.99209672125388
Epoch: 2025-10-15T16:24Z
TLE epoch observation values (Epoch: 2025-10-15T16:24:43.275Z)
Latitude
28.24414°
Longitude
-81.01349°
Altitude
1,777.003 km
Speed
6.956 km/s
True Right ascension
12h 38m 29s
True Declination
28° 07' 08"
Sunlit
Object was in daylight at epoch
Visualization orbit readout
Latitude
Unknown
Longitude
Unknown
Altitude
Unknown
Speed
Unknown
Apparent Right ascension
Unknown
Apparent Declination
Unknown
Sunlit
N/A
Visualization observer readout
Local Sidereal Time
09:08:22
Azimuth
Unknown
Elevation
Unknown
Doppler factor
Unknown
Orbital elements
Apogee altitude
1,862.88 km
Perigee altitude
1,501.224 km
Semi-major axis
8,060.189 km
Eccentricity
0.02243
Inclination
102.4122°
RAAN
196.3788°
Arg. of periapsis
268.1806°
True anomaly
120.76095°
Mean anomaly
118.5328°
Eccentric anomaly
119.64991°
Mean motion
2.99934 °/min
Orbital period
120.03 mins
BSTAR
0.00038231
Loading maneuver chart data...
Computing Atmospheric mass density...
Loading historical data...
Loading historical data...
Loading historical data...
Loading historical data...
Loading historical data...
Loading historical data...
Loading historical data...

Documentation

Showing up to 5 results
|